Location: Olsztyn
(53.7767°N, 20.4765°E)
Time: 08:44:23
(UTC+01:00)

Transit 4A - Pass Details

Date: 07 October 2022
Orbit: 871 x 972 km, 66.8° (Epoch: 06 December)

Event Time Altitude Azimuth Distance (km) Brightness Sun altitude
Exits shadow 02:51:58 16° 327° (NNW) 2,185 9.9 -33.3°
Maximum altitude 02:55:13 24° 9° (N) 1,757 9.7 -33.0°
Drops below altitude 10° 02:59:55 10° 62° (ENE) 2,540 11.0 -32.5°
Sets 03:02:54 0° 76° (ENE) 3,470 11.7 -32.2°
